Flag for Norway Weather past 2 weeks in Jan Mayen, Jan Mayen, Norway

Now
25 °F

Scattered clouds.


Feels Like: 17 °F
Forecast: 26 / 29 °F
Wind: 7 mph from North

Location: Jan Mayen

Current Time: May 5, 2015 at 12:26:24 PM

Latest Report: May 5, 2015 at 11:00 AM


Visibility: 19 mi

Pressure: 30.00 "Hg

Humidity: 71%

Dew point: 17 °F

Location of Jan MayenLocation

Historic Weather in Jan Mayen — Graph

°F

Jan Mayen temperature yesterday

Maximum temperature yesterday: 30 °F (at 2:00 PM)
Minimum temperature yesterday: 26 °F (at 4:00 AM)
Average temperature yesterday: 28 °F

Past Weeks' High & Low Weather Summary

 TemperatureHumidityPressure
High43 °F (Apr 20, 11:00 AM)97% (Apr 21, 6:00 AM)30.32 "Hg (Apr 21, 6:00 AM)
Low15 °F (Apr 24, 9:00 AM)56% (Apr 24, 11:00 AM)29.47 "Hg (Apr 22, 12:00 PM)
Average27 °F78%30.03 "Hg
* Reported Apr 20 11:00 AM — May 5 11:00 AM, Jan Mayen, Weather by CustomWeather, © 2015

Note: Actual official high and low records may vary slightly from our data, if they occured in-between our weather recording intervals... More about our weather records

Advertising

Jan Mayen weather history for previous 24 hours

 ConditionsComfort  
Time TempWeatherWind HumidityBarometerVisibility
11:00 AM
Tue, May 5
25 °FScattered clouds.7 mph71%30.00 "Hg19 mi
10:00 AM25 °FChilly.6 mph74%30.01 "HgN/A
9:00 AM26 °FChilly.7 mph78%30.00 "HgN/A
8:00 AM26 °FOvercast.6 mph83%30.00 "Hg12 mi
7:00 AM26 °FChilly.5 mph82%29.99 "HgN/A
6:00 AM26 °FChilly.5 mph79%29.99 "HgN/A
5:00 AM26 °FChilly.5 mph78%29.99 "HgN/A
4:00 AM26 °FChilly.5 mph83%30.00 "HgN/A
3:00 AM26 °FChilly.3 mph80%30.01 "HgN/A
2:00 AM27 °FPartly sunny.3 mph75%30.01 "Hg16 mi
1:00 AM27 °FChilly.5 mph75%30.01 "HgN/A
12:00 AM27 °FChilly.6 mph74%30.01 "HgN/A
11:00 PM
Mon, May 4
27 °FChilly.5 mph74%30.01 "HgN/A
10:00 PM27 °FChilly.6 mph74%30.01 "HgN/A
9:00 PM28 °FChilly.6 mph75%30.01 "HgN/A
8:00 PM28 °FPartly sunny.7 mph74%30.01 "Hg19 mi
7:00 PM28 °FChilly.7 mph72%30.01 "HgN/A
6:00 PM29 °FChilly.8 mph72%30.01 "HgN/A
5:00 PM29 °FPartly sunny.8 mph74%30.01 "Hg19 mi
2:00 PM30 °FPartly sunny.5 mph64%30.01 "Hg19 mi
1:00 PM28 °FChilly.7 mph70%30.01 "HgN/A
12:00 PM29 °FChilly.8 mph75%30.01 "HgN/A
Weather by CustomWeather, © 2015

See weather overviewHow to use our weather pages